Location: A�t �Alizem
(31.2076°N, 8.7872°W)
Time: 00:13:31
(UTC+00:00)

Envisat - Pass Details

Date: 03 October 2021
Orbit: 764 x 766 km, 98.2° (Epoch: 17 October)

Event Time Altitude Azimuth Distance (km) Brightness Sun altitude
Rises 05:42:45 0° 10° (N) 3,232 6.4 -11.0°
Reaches altitude 10° 05:45:03 10° 10° (N) 2,303 5.6 -10.5°
Maximum altitude 05:50:08 81° 284° (WNW) 776 3.0 -9.4°
Drops below altitude 10° 05:55:11 10° 197° (SSW) 2,290 5.3 -8.3°
Sets 05:57:28 0° 196° (SSW) 3,213 6.1 -7.8°
